Time,TemperatureF,DewpointF,PressureIn,WindDirection,WindDirectionDegrees,WindSpeedMPH,WindSpeedGustMPH,Humidity,HourlyPrecipIn,Conditions,Clouds,dailyrainin,SoftwareType,DateUTC
2015-05-25 00:02:00,62.0,60.0,29.75,SSW,210,4.0,9.0,92,-99.99,,,-99.99,,2015-05-25 05:02:00,
2015-05-25 00:21:00,62.0,60.0,29.75,WSW,245,3.0,12.0,92,-99.99,,,-99.99,,2015-05-25 05:21:00,
2015-05-25 00:32:00,63.0,61.0,29.75,SW,229,0.0,6.0,92,-99.99,,,-99.99,,2015-05-25 05:32:00,
2015-05-25 00:52:00,63.0,61.0,29.75,WSW,255,2.0,8.0,92,-99.99,,,-99.99,,2015-05-25 05:52:00,
2015-05-25 01:01:00,63.0,61.0,29.75,WSW,238,2.0,6.0,92,-99.99,,,-99.99,,2015-05-25 06:01:00,
2015-05-25 01:21:00,63.0,61.0,29.74,SSW,198,3.0,9.0,92,-99.99,,,-99.99,,2015-05-25 06:21:00,
2015-05-25 01:31:00,62.0,60.0,29.74,SSW,213,2.0,5.0,92,-99.99,,,-99.99,,2015-05-25 06:31:00,
2015-05-25 01:51:00,62.0,60.0,29.75,SW,215,4.0,9.0,92,-99.99,,,-99.99,,2015-05-25 06:51:00,
2015-05-25 02:02:00,62.0,60.0,29.75,SSW,192,3.0,11.0,92,-99.99,,,-99.99,,2015-05-25 07:02:00,
2015-05-25 02:21:00,62.0,60.0,29.75,SW,225,2.0,7.0,92,-99.99,,,-99.99,,2015-05-25 07:21:00,
2015-05-25 02:31:00,62.0,60.0,29.75,SW,225,0.0,3.0,92,-99.99,,,-99.99,,2015-05-25 07:31:00,
2015-05-25 02:51:00,62.0,60.0,29.75,SW,225,0.0,3.0,92,-99.99,,,-99.99,,2015-05-25 07:51:00,
2015-05-25 03:02:00,62.0,60.0,29.75,SW,225,1.0,4.0,92,-99.99,,,-99.99,,2015-05-25 08:02:00,
2015-05-25 03:21:00,62.0,59.0,29.75,SSE,167,1.0,5.0,91,-99.99,,,-99.99,,2015-05-25 08:21:00,
2015-05-25 03:31:00,61.0,58.0,29.75,South,171,2.0,5.0,91,-99.99,,,-99.99,,2015-05-25 08:31:00,
2015-05-25 03:52:00,61.0,58.0,29.75,SSW,202,2.0,7.0,91,-99.99,,,-99.99,,2015-05-25 08:52:00,
2015-05-25 04:02:00,61.0,58.0,29.76,South,183,2.0,9.0,91,-99.99,,,-99.99,,2015-05-25 09:02:00,
2015-05-25 04:21:00,61.0,58.0,29.76,South,173,1.0,7.0,91,-99.99,,,-99.99,,2015-05-25 09:21:00,
2015-05-25 04:31:00,61.0,58.0,29.76,South,173,0.0,4.0,91,-99.99,,,-99.99,,2015-05-25 09:31:00,
2015-05-25 04:51:00,61.0,58.0,29.76,South,174,1.0,5.0,91,-99.99,,,-99.99,,2015-05-25 09:51:00,
2015-05-25 05:02:00,61.0,58.0,29.75,South,174,0.0,3.0,90,-99.99,,,-99.99,,2015-05-25 10:02:00,
2015-05-25 05:21:00,61.0,58.0,29.75,South,174,1.0,3.0,90,-99.99,,,-99.99,,2015-05-25 10:21:00,
2015-05-25 05:31:00,61.0,58.0,29.76,South,174,2.0,5.0,90,-99.99,,,-99.99,,2015-05-25 10:31:00,
2015-05-25 05:52:00,61.0,58.0,29.76,South,173,0.0,4.0,90,-99.99,,,-99.99,,2015-05-25 10:52:00,
2015-05-25 06:02:00,61.0,58.0,29.77,South,173,0.0,1.0,90,-99.99,,,-99.99,,2015-05-25 11:02:00,
2015-05-25 06:22:00,61.0,58.0,29.77,South,173,0.0,3.0,90,-99.99,,,-99.99,,2015-05-25 11:22:00,
2015-05-25 06:32:00,61.0,58.0,29.77,South,173,0.0,3.0,90,-99.99,,,-99.99,,2015-05-25 11:32:00,
2015-05-25 06:52:00,61.0,58.0,29.77,South,173,0.0,2.0,90,-99.99,,,-99.99,,2015-05-25 11:52:00,
2015-05-25 07:02:00,61.0,58.0,29.78,South,173,0.0,2.0,90,-99.99,,,-99.99,,2015-05-25 12:02:00,
2015-05-25 07:22:00,61.0,58.0,29.78,South,174,2.0,4.0,90,-99.99,,,-99.99,,2015-05-25 12:22:00,
2015-05-25 07:32:00,62.0,59.0,29.78,South,174,0.0,3.0,90,-99.99,,,-99.99,,2015-05-25 12:32:00,
2015-05-25 07:52:00,63.0,60.0,29.78,South,174,1.0,4.0,89,-99.99,,,-99.99,,2015-05-25 12:52:00,
2015-05-25 08:02:00,64.0,61.0,29.78,South,180,2.0,5.0,89,-99.99,,,-99.99,,2015-05-25 13:02:00,
2015-05-25 08:21:00,65.0,62.0,29.79,South,179,3.0,7.0,89,-99.99,,,-99.99,,2015-05-25 13:21:00,
2015-05-25 08:31:00,66.0,63.0,29.79,South,174,4.0,9.0,90,-99.99,,,-99.99,,2015-05-25 13:31:00,
2015-05-25 08:52:00,68.0,65.0,29.80,South,191,2.0,9.0,90,-99.99,,,-99.99,,2015-05-25 13:52:00,
2015-05-25 09:01:00,69.0,67.0,29.80,South,181,4.0,8.0,93,-99.99,,,-99.99,,2015-05-25 14:01:00,
2015-05-25 09:22:00,70.0,67.0,29.80,SSE,157,4.0,15.0,91,-99.99,,,-99.99,,2015-05-25 14:22:00,
2015-05-25 09:31:00,71.0,68.0,29.80,SW,215,7.0,13.0,89,-99.99,,,-99.99,,2015-05-25 14:31:00,
2015-05-25 09:52:00,72.0,68.0,29.80,SSW,198,6.0,15.0,88,-99.99,,,-99.99,,2015-05-25 14:52:00,
2015-05-25 10:11:00,72.0,68.0,29.79,SSW,204,6.0,15.0,87,-99.99,,,-99.99,,2015-05-25 15:11:00,
2015-05-25 10:21:00,73.0,68.0,29.79,South,184,8.0,15.0,84,-99.99,,,-99.99,,2015-05-25 15:21:00,
2015-05-25 10:41:00,74.0,68.0,29.79,SSW,195,6.0,16.0,82,-99.99,,,-99.99,,2015-05-25 15:41:00,
2015-05-25 10:51:00,74.0,68.0,29.79,SSW,202,6.0,18.0,81,-99.99,,,-99.99,,2015-05-25 15:51:00,
2015-05-25 11:11:00,74.0,68.0,29.78,SSW,201,6.0,15.0,81,-99.99,,,-99.99,,2015-05-25 16:11:00,